This demonstration page uses our WeatherBlox Daily Observations layout. Learn more.

Left ArrowRight Arrow

34.74481, -87.66753

Hourly Observations for May 19, 2019

Temp ( °F °C ) Dew Point ( °F °C ) Humidity (%) Winds ( mph kmh ) Pressure ( in mb ) Visibility ( mi km ) Precip ( " mm )
12:53 am 00:53 Mostly Cloudy 77 25 62 16.7 60 60 S 12 19 29.91 1013 10 16 0.00 0.00
1:53 am 01:53 Cloudy 77 25 61 16.1 58 58 SSW 13 20 29.91 1013 10 16 0.00 0.00
2:53 am 02:53 Mostly Cloudy 75 23.9 62 16.7 64 64 SSW 8 13 29.91 1013 10 16 0.00 0.00
3:53 am 03:53 Clear 73 22.8 62 16.7 69 69 SSW 8 13 29.91 1013 10 16 0.00 0.00
4:53 am 04:53 Clear 72 22.2 63 17.2 73 73 S 8 13 29.89 1012 10 16 0.00 0.00
5:53 am 05:53 Mostly Cloudy 71 21.7 63 17.2 76 76 S 6 9 29.91 1013 10 16 0.00 0.00
6:53 am 06:53 Mostly Sunny 72 22.2 63 17.2 73 73 S 8 13 29.90 1013 10 16 0.00 0.00
7:53 am 07:53 Mostly Cloudy 73 22.8 64 17.8 74 74 S 10 17 29.92 1013 10 16 0.00 0.00
8:53 am 08:53 Sunny 77 25 65 18.3 66 66 SSW 17 28 29.90 1012 10 16 0.00 0.00
9:53 am 09:53 Sunny 80 26.7 65 18.3 60 60 SSW 20 31 29.91 1013 10 16 0.00 0.00
10:53 am 10:53 Sunny 82 27.8 66 18.9 58 58 SSW 14 22 29.90 1013 10 16 0.00 0.00
11:53 am 11:53 Cloudy 80 26.7 68 20 67 67 SW 15 24 29.91 1013 10 16 0.00 0.00
12:53 pm 12:53 Mostly Cloudy with Light Rain 74 23.3 67 19.4 79 79 WSW 10 17 29.94 1014 10 16 0.02 0.51
1:53 pm 13:53 Sunny 80 26.7 70 21.1 71 71 WSW 7 11 29.93 1013 10 16 0.00 0.03
2:53 pm 14:53 Mostly Cloudy 84 28.9 68 20 59 59 WSW 20 31 29.92 1013 10 16 0.00 0.00
3:53 pm 15:53 Sunny 83 28.3 66 18.9 57 57 SW 10 17 29.92 1013 10 16 0.00 0.00
4:53 pm 16:53 Partly Cloudy 83 28.3 65 18.3 55 55 SSW 10 17 29.91 1013 10 16 0.00 0.00
5:53 pm 17:53 Mostly Cloudy 77 25 68 20 74 74 S 8 13 29.92 1013 10 16 0.00 0.00
6:53 pm 18:53 Sunny 77 25 69 20.6 77 77 S 8 13 29.91 1013 10 16 0.00 0.00
7:53 pm 19:53 Mostly Clear 74 23.3 69 20.6 85 85 SSE 5 7 29.93 1014 10 16 0.00 0.00
8:53 pm 20:53 Clear 73 22.8 69 20.6 87 87 SSE 7 11 29.94 1014 10 16 0.00 0.00
9:53 pm 21:53 Clear 72 22.2 67 19.4 84 84 SSW 6 9 29.96 1015 10 16 0.00 0.00
10:53 pm 22:53 Clear 71 21.7 66 18.9 84 84 SSW 5 7 29.97 1015 10 16 0.00 0.00
11:53 pm 23:53 Clear 69 20.6 66 18.9 90 90 SW 3 6 29.98 1015 10 16 0.00 0.00

Powered by AerisWeather